sat.trackr.live / text

‹ back to catalog

ONEWEB-0149

NORAD 48058 · 2021-025S

PAYLOAD ACTIVE UNKNOWN

§ Identity

Operator
Country
UK
Launch date
2021-03-25
Launch site
VOSTO
Launch vehicle
Mass (kg)
RCS (m²)

Purposes: comms

External: N2YO · Heavens-Above · Gunter

§ Orbital elements

Epoch: 2026-09-19T22:10:09.050304Z

Period
109.63 min
Inclination
87.8916°
Eccentricity
0.0002011
Mean motion
13.13470672 rev/d
Perigee alt
1,208.2 km
Apogee alt
1,211.3 km
Semi-major
7,587.9 km
B*
-8.9363e-4
RAAN
301.3768°
Arg perigee
98.1080°
Mean anomaly
262.0277°
Rev number
26,592

§ Raw data

ONEWEB-01491 48058U 21025S   26262.92371586 -.00000314  00000+0 -89363-3 0  99952 48058  87.8916 301.3768 0002011  98.1080 262.0277 13.13470672265928

JSON: /api/v1/satellites/48058 · /tle

For live sub-satellite position, see the globe view (requires WebGL).

§ Visibility from observer

Set your observer location to see the next 7 days of passes ≥ 10°. The values pass through the URL so the page stays shareable.

No JS? Fill the form by hand. The geolocation button needs JavaScript.